GW3653 Weather Reports


Display with metric or nautical units.
time (UTC)temp
F
wind
direction
speed
MPH
gust
MPH
rain 1hr
in
rain 24hr
in
rain mn
in
humidity
%
barometer
mb
20260509120518 56 0.0 1.0 0.00 0.00 0.00 84 1028.7
20260509115518 56 0.0 1.0 0.00 0.00 0.00 85 1028.7
20260509114518 56 0.0 1.0 0.00 0.00 0.00 85 1028.6
20260509113518 56 0.0 1.0 0.00 0.00 0.00 85 1028.6
20260509112538 56 0.0 1.0 0.00 0.00 0.00 85 1028.6
20260509111538 57 0.0 0.0 0.00 0.00 0.00 84 1028.5
20260509110518 57 0.0 1.0 0.00 0.00 0.00 84 1028.5
20260509105518 57 0.0 1.0 0.00 0.00 0.00 83 1028.5
20260509104518 58 0.0 1.0 0.00 0.00 0.00 83 1028.4
20260509103518 58 0.0 2.0 0.00 0.00 0.00 82 1028.3
20260509102518 58 0.0 2.0 0.00 0.00 0.00 82 1028.3
20260509101518 59 0.0 3.0 0.00 0.00 0.00 81 1028.2
20260509100518 59 68 1.0 3.0 0.00 0.00 0.00 81 1028.1
20260509095518 59 0.0 5.0 0.00 0.00 0.00 80 1028.0
20260509094558 59 90 1.0 7.0 0.00 0.00 0.00 79 1028.0
20260509093518 60 0.0 3.0 0.00 0.00 0.00 79 1027.9
20260509092518 60 0.0 2.0 0.00 0.00 0.00 78 1027.8
20260509091518 61 0.0 2.0 0.00 0.00 0.00 77 1027.8
20260509090518 62 90 1.0 5.0 0.00 0.00 0.00 76 1027.7
20260509085518 63 90 1.0 4.0 0.00 0.00 0.00 75 1027.6
20260509084518 63 113 1.0 4.0 0.00 0.00 0.00 74 1027.5
20260509083518 64 113 2.0 9.0 0.00 0.00 0.00 72 1027.3
20260509082538 65 90 1.0 6.0 0.00 0.00 0.00 71 1027.4
20260509081518 66 113 1.0 3.0 0.00 0.00 0.00 70 1027.5
20260509080518 67 113 1.0 5.0 0.00 0.00 0.00 66 1027.6
20260509075517 67 113 1.0 2.0 0.00 0.00 0.00 62 1027.6
20260509074517 68 0.0 3.0 0.00 0.00 0.00 59 1027.6
20260509073518 68 0.0 3.0 0.00 0.00 0.00 63 1027.6
20260509072558 68 90 1.0 3.0 0.00 0.00 0.00 62 1027.5
20260509071517 69 0.0 1.0 0.00 0.00 0.00 57 1027.5
20260509070518 69 0.0 2.0 0.00 0.00 0.00 55 1027.5
20260509065517 68 0.0 3.0 0.00 0.00 0.00 57 1027.5
20260509064518 68 0.0 1.0 0.00 0.00 0.00 57 1027.6
20260509063537 68 0.0 1.0 0.00 0.00 0.00 59 1027.6
20260509062517 68 113 1.0 2.0 0.00 0.00 0.00 57 1027.7
20260509061518 68 0.0 1.0 0.00 0.00 0.00 58 1027.8
20260509060517 68 0.0 1.0 0.00 0.00 0.00 58 1027.9
20260509055517 68 90 1.0 3.0 0.00 0.00 0.00 57 1028.1
20260509054517 68 0.0 4.0 0.00 0.00 0.00 57 1028.3
20260509053517 68 0.0 2.0 0.00 0.00 0.00 58 1028.3
20260509052517 68 0.0 2.0 0.00 0.00 0.00 60 1028.4
20260509051518 68 90 1.0 4.0 0.00 0.00 0.00 58 1028.5
20260509050539 67 135 1.0 4.0 0.00 0.00 0.00 57 1028.6
20260509045519 67 113 1.0 6.0 0.00 0.00 0.00 58 1028.9
20260509044519 67 113 1.0 3.0 0.00 0.00 0.00 58 1028.9
20260509043539 67 90 1.0 7.0 0.00 0.00 0.00 60 1029.2
20260509042519 66 270 1.0 3.0 0.00 0.00 0.00 60 1029.4
20260509041519 67 0.0 2.0 0.00 0.00 0.00 62 1029.5
20260509040519 66 0.0 3.0 0.00 0.00 0.00 63 1029.7
20260509035519 65 90 1.0 3.0 0.00 0.00 0.00 63 1029.9
20260509034519 65 113 1.0 6.0 0.00 0.00 0.00 64 1030.0
20260509033519 65 113 1.0 4.0 0.00 0.00 0.00 64 1030.3
20260509032519 64 0.0 3.0 0.00 0.00 0.00 67 1030.5
20260509031519 63 0.0 2.0 0.00 0.00 0.00 68 1030.6
20260509030519 62 113 1.0 5.0 0.00 0.00 0.00 69 1030.9
20260509025519 62 68 1.0 2.0 0.00 0.00 0.00 69 1031.2
20260509024519 61 45 1.0 4.0 0.00 0.00 0.00 70 1031.2
20260509023519 61 0.0 3.0 0.00 0.00 0.00 72 1031.4
20260509022519 60 0.0 1.0 0.00 0.00 0.00 73 1031.5
20260509021519 59 90 1.0 3.0 0.00 0.00 0.00 73 1031.4
20260509020520 59 0.0 2.0 0.00 0.00 0.00 74 1031.5
20260509015519 58 113 1.0 3.0 0.00 0.00 0.00 75 1031.7
20260509014519 57 0.0 2.0 0.00 0.00 0.00 77 1031.7
20260509013519 56 0.0 2.0 0.00 0.00 0.00 77 1031.8
20260509012519 56 0.0 4.0 0.00 0.00 0.00 78 1031.9
20260509011519 55 0.0 3.0 0.00 0.00 0.00 78 1032.0
20260509010519 54 0.0 3.0 0.00 0.00 0.00 79 1032.1
20260509005519 54 0.0 1.0 0.00 0.00 0.00 81 1032.1
20260509004518 53 0.0 3.0 0.00 0.00 0.00 82 1032.1
20260509003519 52 0.0 2.0 0.00 0.00 0.00 84 1032.1
20260509002519 51 0.0 1.0 0.00 0.00 0.00 87 1032.1
20260509001558 50 0.0 1.0 0.00 0.00 0.00 90 1032.0
20260509000518 48 0.0 1.0 0.00 0.00 0.00 91 1031.8
20260508235518 48 0.0 0.0 0.00 0.00 0.00 91 1031.7
20260508234619 47 0.0 0.0 0.00 0.00 0.00 91 1031.8
20260508233518 46 0.0 0.0 0.00 0.00 0.00 91 1031.8
20260508232518 46 0.0 0.0 0.00 0.00 0.00 91 1031.7
20260508231518 45 0.0 0.0 0.00 0.00 0.00 89 1031.8
20260508230519 46 0.0 0.0 0.00 0.00 0.00 90 1031.7
20260508225518 46 0.0 0.0 0.00 0.00 0.00 89 1031.6
20260508224518 46 0.0 0.0 0.00 0.00 0.00 90 1031.4
20260508223538 46 0.0 0.0 0.00 0.00 0.00 88 1031.4
20260508222519 47 0.0 0.0 0.00 0.00 0.00 88 1031.3
20260508221518 47 0.0 0.0 0.00 0.00 0.00 88 1031.2
20260508220518 48 0.0 1.0 0.00 0.00 0.00 89 1031.3
20260508215518 47 0.0 0.0 0.00 0.00 0.00 88 1031.2
20260508214518 48 0.0 0.0 0.00 0.00 0.00 88 1031.2
20260508213518 48 0.0 0.0 0.00 0.00 0.00 88 1031.2
20260508212518 48 0.0 1.0 0.00 0.00 0.00 87 1031.3
20260508211518 49 0.0 0.0 0.00 0.00 0.00 86 1031.1
20260508210518 49 0.0 0.0 0.00 0.00 0.00 86 1031.1
20260508205518 50 0.0 0.0 0.00 0.00 0.00 87 1031.1
20260508204518 50 0.0 0.0 0.00 0.00 0.00 87 1031.1
20260508203538 50 0.0 0.0 0.00 0.00 0.00 86 1031.2
20260508202518 50 0.0 0.0 0.00 0.00 0.00 86 1031.1
20260508201518 50 0.0 1.0 0.00 0.00 0.00 85 1031.0
20260508200518 51 0.0 1.0 0.00 0.00 0.00 85 1030.8
20260508195518 51 0.0 0.0 0.00 0.00 0.00 84 1030.7
20260508194518 51 0.0 1.0 0.00 0.00 0.00 84 1030.7
20260508193518 52 0.0 1.0 0.00 0.00 0.00 84 1030.6
20260508192558 52 0.0 9.0 0.00 0.00 0.00 84 1030.8
20260508191518 51 0.0 3.0 0.00 0.00 0.00 84 1030.7
20260508190518 51 0.0 1.0 0.00 0.00 0.00 84 1030.7
20260508185538 52 0.0 1.0 0.00 0.00 0.00 84 1030.8
20260508184518 52 0.0 1.0 0.00 0.00 0.00 84 1030.8
20260508183518 52 0.0 1.0 0.00 0.00 0.00 83 1030.8
20260508182517 52 0.0 3.0 0.00 0.00 0.00 84 1030.7
20260508181518 52 0.0 1.0 0.00 0.00 0.00 84 1030.7
20260508180517 52 0.0 1.0 0.00 0.00 0.00 84 1030.8
20260508175517 52 0.0 1.0 0.00 0.00 0.00 85 1030.8
20260508174518 52 0.0 1.0 0.00 0.00 0.00 85 1030.8
20260508173517 52 0.0 1.0 0.00 0.00 0.00 85 1030.8
20260508172517 52 0.0 0.0 0.00 0.00 0.00 85 1030.8
20260508171538 53 0.0 1.0 0.00 0.00 0.00 85 1030.8
20260508170517 53 0.0 1.0 0.00 0.00 0.00 85 1030.9
20260508165517 53 0.0 1.0 0.00 0.00 0.00 85 1030.9
20260508164518 53 0.0 1.0 0.00 0.00 0.00 86 1031.0
20260508163517 53 0.0 0.0 0.00 0.00 0.00 85 1031.0
20260508162557 53 0.0 0.0 0.00 0.00 0.00 85 1031.1
20260508161517 53 0.0 0.0 0.00 0.00 0.00 84 1031.1
20260508160518 54 0.0 0.0 0.00 0.00 0.00 84 1031.0
20260508155518 54 0.0 1.0 0.00 0.00 0.00 84 1031.1
20260508154518 54 0.0 0.0 0.00 0.00 0.00 84 1031.2
20260508153518 54 0.0 3.0 0.00 0.00 0.00 84 1031.1
20260508152518 54 0.0 1.0 0.00 0.00 0.00 84 1031.4
20260508151518 54 0.0 1.0 0.00 0.00 0.00 83 1031.4
20260508150618 54 0.0 4.0 0.00 0.00 0.00 84 1031.4
20260508150018 54 0.0 1.0 0.00 0.00 0.00 84 1031.5
20260508145018 54 0.0 1.0 0.00 0.00 0.00 84 1031.5
20260508144021 54 0.0 1.0 0.00 0.00 0.00 84 1031.6
20260508143021 54 0.0 4.0 0.00 0.00 0.00 84 1031.8
20260508142041 55 0.0 1.0 0.00 0.00 0.00 84 1031.9
20260508141018 55 0.0 1.0 0.00 0.00 0.00 84 1031.9
20260508140103 55 0.0 1.0 0.00 0.00 0.00 84 1031.9
20260508135018 55 0.0 1.0 0.00 0.00 0.00 84 1031.8
20260508134025 55 0.0 1.0 0.00 0.00 0.00 84 1031.9
20260508133024 55 0.0 1.0 0.00 0.00 0.00 84 1031.9
20260508132038 55 0.0 1.0 0.00 0.00 0.00 84 1032.0
20260508131038 55 0.0 2.0 0.00 0.00 0.00 84 1031.9
20260508130037 55 0.0 1.0 0.00 0.00 0.00 85 1031.8
20260508125018 55 0.0 0.0 0.00 0.00 0.00 85 1031.8
20260508124017 55 0.0 0.0 0.00 0.00 0.00 84 1031.8
20260508123017 56 0.0 0.0 0.00 0.00 0.00 84 1031.7
20260508122017 56 0.0 0.0 0.00 0.00 0.00 84 1031.7